Location: Mountain View
(37.3861°N, 122.0839°W)
Time: 12:17:42
(UTC-07:00)

Tiangong - Pass Details

Date: 29 September 2021
Orbit: 382 x 385 km, 41.5° (Epoch: 18 October)

Event Time Altitude Azimuth Distance (km) Brightness Sun altitude
Exits shadow 06:23:12 11° 284° (WNW) 1,326 3.2 -8.6°
Maximum altitude 06:26:00 39° 354° (N) 590 2.0 -8.1°
Drops below altitude 10° 06:28:59 10° 65° (ENE) 1,396 5.2 -7.5°
Sets 06:31:08 0° 74° (ENE) 2,248 6.9 -7.0°
